Weather History for Litchfield, MN

Change the Weather History Date:

Tuesday, April 10, 2012

  Actual Average Record
Temperature  
Mean Temperature 32 °F -  
Max Temperature 42 °F 53 °F 86 °F (1977)
Min Temperature 23 °F 30 °F 15 °F (1989)
Degree Days  
Heating Degree Days 32    
Moisture  
Dew Point 16 °F    
Average Humidity 52    
Maximum Humidity 86    
Minimum Humidity 31    
Precipitation  
Precipitation 0.00 in - - ()
Sea Level Pressure  
Sea Level Pressure 30.23 in    
Wind  
Wind Speed 6 mph (NNW)    
Max Wind Speed 20 mph    
Max Gust Speed 28 mph    
Visibility 10 miles    
Events      
Averages and records for this station are not official NWS values.
T = Trace of Precipitation, MM = Missing Value Source: NWS Daily Summary

Daily Weather History Graph

Daily Weather History Graph

Search for Another Location

Airport:

Trip Planner

Search our weather history database for the weather conditions in past years. The results will help you decide how hot, cold, wet, or windy it might be!

Date:

Astronomy

Apr. 10, 2012 Rise Set
Actual Time 6:41 AM CDT 7:57 PM CDT
Civil Twilight 6:10 AM CDT 8:28 PM CDT
Nautical Twilight 5:34 AM CDT 9:05 PM CDT
Astronomical Twilight 4:55 AM CDT 9:44 PM CDT
Moon 12:03 AM CDT (4/10) 9:15 AM CDT (4/10)
Length of Visible Light 14h 17m
Length of Day
13h 16m
Waning Gibbous, 79% of the Moon is Illuminated
Apr 10
Waning Gibbous
Apr 13
Last Quarter
Apr 21
New
Apr 29
First Quarter
May 5
Full

Hourly Weather History & Observations

Time (CDT) Temp. Windchill Dew Point Humidity Pressure Visibility Wind Dir Wind Speed Gust Speed Precip Events Conditions
12:13 AM 32.0 °F - 17.6 °F 55% 30.18 in 10.0 mi Calm Calm - N/A   Clear
12:33 AM 30.2 °F 26.7 °F 17.6 °F 60% 30.18 in 10.0 mi NNW 3.5 mph - N/A   Clear
12:53 AM 30.2 °F 26.7 °F 17.6 °F 60% 30.18 in 10.0 mi NNW 3.5 mph - N/A   Clear
1:13 AM 30.2 °F - 17.6 °F 60% 30.18 in 10.0 mi Calm Calm - N/A   Clear
1:33 AM 30.2 °F - 17.6 °F 60% 30.18 in 10.0 mi Calm Calm - N/A   Clear
1:53 AM 30.2 °F 26.7 °F 17.6 °F 60% 30.18 in 10.0 mi NNW 3.5 mph - N/A   Clear
2:12 AM 30.2 °F - 17.6 °F 60% 30.18 in 10.0 mi Calm Calm - N/A   Clear
2:33 AM 28.4 °F - 19.4 °F 69% 30.18 in 10.0 mi Calm Calm - N/A   Clear
2:53 AM 28.4 °F - 17.6 °F 64% 30.18 in 10.0 mi Calm Calm - N/A   Clear
3:13 AM 26.6 °F - 17.6 °F 69% 30.18 in 10.0 mi Calm Calm - N/A   Clear
3:33 AM 26.6 °F - 17.6 °F 69% 30.18 in 10.0 mi Calm Calm - N/A   Clear
3:53 AM 26.6 °F - 17.6 °F 69% 30.18 in 10.0 mi Calm Calm - N/A   Clear
4:13 AM 26.6 °F - 17.6 °F 69% 30.18 in 10.0 mi Calm Calm - N/A   Clear
4:33 AM 26.6 °F - 17.6 °F 69% 30.17 in 10.0 mi Calm Calm - N/A   Clear
4:53 AM 26.6 °F - 17.6 °F 69% 30.17 in 10.0 mi Calm Calm - N/A   Clear
5:13 AM 26.6 °F - 19.4 °F 74% 30.18 in 10.0 mi Calm Calm - N/A   Clear
5:33 AM 26.6 °F - 21.2 °F 80% 30.18 in 10.0 mi Calm Calm - N/A   Clear
5:53 AM 24.8 °F 17.9 °F 19.4 °F 80% 30.19 in 10.0 mi North 5.8 mph - N/A   Clear
6:13 AM 24.8 °F 19.1 °F 19.4 °F 80% 30.19 in 10.0 mi North 4.6 mph - N/A   Clear
6:33 AM 23.0 °F 15.8 °F 19.4 °F 86% 30.20 in 10.0 mi NNW 5.8 mph - N/A   Clear
6:53 AM 23.0 °F 15.8 °F 19.4 °F 86% 30.21 in 10.0 mi NNW 5.8 mph - N/A   Clear
7:13 AM 24.8 °F 16.9 °F 19.4 °F 80% 30.22 in 10.0 mi NNW 6.9 mph - N/A   Clear
7:33 AM 26.6 °F 18.2 °F 19.4 °F 74% 30.22 in 10.0 mi NNW 8.1 mph - N/A   Clear
7:52 AM 26.6 °F 16.2 °F 19.4 °F 74% 30.23 in 10.0 mi NNW 11.5 mph - N/A   Clear
8:13 AM 28.4 °F 19.1 °F 19.4 °F 69% 30.23 in 10.0 mi NNW 10.4 mph - N/A   Clear
8:33 AM 30.2 °F 20.2 °F 19.4 °F 64% 30.23 in 10.0 mi NNW 12.7 mph 17.3 mph N/A   Clear
8:53 AM 30.2 °F 19.3 °F 17.6 °F 60% 30.24 in 10.0 mi NNW 15.0 mph 20.7 mph N/A   Clear
9:13 AM 30.2 °F 18.5 °F 15.8 °F 55% 30.24 in 10.0 mi NNW 17.3 mph 24.2 mph N/A   Clear
9:32 AM 30.2 °F 17.8 °F 15.8 °F 55% 30.25 in 10.0 mi NNW 19.6 mph - N/A   Clear
9:53 AM 33.8 °F 23.5 °F 17.6 °F 52% 30.25 in 10.0 mi North 16.1 mph 23.0 mph N/A   Clear
10:13 AM 33.8 °F 23.5 °F 17.6 °F 52% 30.26 in 10.0 mi NNW 16.1 mph 24.2 mph N/A   Scattered Clouds
10:33 AM 33.8 °F 24.3 °F 15.8 °F 48% 30.26 in 10.0 mi NW 13.8 mph 23.0 mph N/A   Scattered Clouds
10:53 AM 33.8 °F 23.9 °F 15.8 °F 48% 30.26 in 10.0 mi NNW 15.0 mph 23.0 mph N/A   Clear
11:13 AM 35.6 °F 25.9 °F 15.8 °F 44% 30.26 in 10.0 mi NNW 16.1 mph 19.6 mph N/A   Clear
11:32 AM 35.6 °F 25.9 °F 14.0 °F 41% 30.27 in 10.0 mi NNW 16.1 mph 21.9 mph N/A   Clear
11:53 AM 35.6 °F 26.6 °F 15.8 °F 44% 30.27 in 10.0 mi NNW 13.8 mph 20.7 mph N/A   Clear
12:13 PM 37.4 °F 27.8 °F 12.2 °F 36% 30.26 in 10.0 mi NNW 17.3 mph 23.0 mph N/A   Clear
12:33 PM 37.4 °F 28.2 °F 12.2 °F 36% 30.26 in 10.0 mi NNW 16.1 mph 23.0 mph N/A   Clear
12:53 PM 37.4 °F 29.3 °F 12.2 °F 36% 30.26 in 10.0 mi NW 12.7 mph 18.4 mph N/A   Clear
1:13 PM 39.2 °F 31.2 °F 12.2 °F 33% 30.26 in 10.0 mi NW 13.8 mph 19.6 mph N/A   Clear
1:32 PM 39.2 °F 30.5 °F 12.2 °F 33% 30.26 in 10.0 mi NNW 16.1 mph 24.2 mph N/A   Clear
2:13 PM 39.2 °F 31.2 °F 12.2 °F 33% 30.24 in 10.0 mi NNW 13.8 mph 25.3 mph N/A   Clear
2:33 PM 41.0 °F 33.1 °F 14.0 °F 33% 30.24 in 10.0 mi NNW 15.0 mph 23.0 mph N/A   Clear
2:53 PM 41.0 °F 33.9 °F 15.8 °F 36% 30.24 in 10.0 mi NW 12.7 mph 24.2 mph N/A   Clear
3:32 PM 42.8 °F 34.8 °F 14.0 °F 31% 30.23 in 10.0 mi NW 17.3 mph 25.3 mph N/A   Clear
3:53 PM 42.8 °F 35.4 °F 14.0 °F 31% 30.23 in 10.0 mi NW 15.0 mph 20.7 mph N/A   Clear
4:12 PM 42.8 °F 35.1 °F 14.0 °F 31% 30.23 in 10.0 mi NW 16.1 mph 24.2 mph N/A   Clear
4:33 PM 42.8 °F 34.5 °F 14.0 °F 31% 30.23 in 10.0 mi NNW 18.4 mph 27.6 mph N/A   Clear
4:53 PM 42.8 °F 35.4 °F 14.0 °F 31% 30.24 in 10.0 mi NW 15.0 mph 21.9 mph N/A   Clear
5:12 PM 42.8 °F 35.4 °F 14.0 °F 31% 30.24 in 10.0 mi NW 15.0 mph 27.6 mph N/A   Clear
5:53 PM 41.0 °F 33.1 °F 12.2 °F 31% 30.24 in 10.0 mi NW 15.0 mph 21.9 mph N/A   Clear
6:12 PM 41.0 °F 33.5 °F 14.0 °F 33% 30.24 in 10.0 mi North 13.8 mph 19.6 mph N/A   Clear
6:33 PM 41.0 °F 33.1 °F 14.0 °F 33% 30.24 in 10.0 mi North 15.0 mph 23.0 mph N/A   Clear
6:53 PM 39.2 °F 30.8 °F 12.2 °F 33% 30.25 in 10.0 mi North 15.0 mph 20.7 mph N/A   Clear
7:13 PM 39.2 °F 31.2 °F 12.2 °F 33% 30.25 in 10.0 mi North 13.8 mph 18.4 mph N/A   Clear
7:33 PM 39.2 °F 32.5 °F 12.2 °F 33% 30.25 in 10.0 mi North 10.4 mph 19.6 mph N/A   Clear
7:52 PM 37.4 °F 29.8 °F 12.2 °F 36% 30.26 in 10.0 mi NNW 11.5 mph - N/A   Clear
8:13 PM 37.4 °F 30.3 °F 14.0 °F 38% 30.25 in 10.0 mi North 10.4 mph - N/A   Clear
8:33 PM 35.6 °F 29.2 °F 14.0 °F 41% 30.26 in 10.0 mi North 8.1 mph - N/A   Clear
8:53 PM 33.8 °F 29.6 °F 15.8 °F 48% 30.27 in 10.0 mi North 4.6 mph - N/A   Clear
9:13 PM 33.8 °F 28.6 °F 15.8 °F 48% 30.28 in 10.0 mi North 5.8 mph - N/A   Clear
9:33 PM 33.8 °F 29.6 °F 15.8 °F 48% 30.29 in 10.0 mi North 4.6 mph - N/A   Clear
9:52 PM 33.8 °F 29.6 °F 15.8 °F 48% 30.29 in 10.0 mi North 4.6 mph - N/A   Clear
10:13 PM 32.0 °F 26.4 °F 15.8 °F 51% 30.30 in 10.0 mi NNE 5.8 mph - N/A   Clear
10:33 PM 32.0 °F 27.5 °F 15.8 °F 51% 30.31 in 10.0 mi NNE 4.6 mph - N/A   Clear
10:53 PM 30.2 °F 25.4 °F 15.8 °F 55% 30.31 in 10.0 mi NNE 4.6 mph - N/A   Clear
11:13 PM 30.2 °F 24.3 °F 15.8 °F 55% 30.31 in 10.0 mi NNE 5.8 mph - N/A   Clear
11:32 PM 30.2 °F 26.7 °F 15.8 °F 55% 30.32 in 10.0 mi NNE 3.5 mph - N/A   Clear